Torna al catalogo

STARLINK-37411

AttivoComunicazioniVLEO
NORAD 69380·PAYLOAD·🇺🇸 United States

Lanciato Jun 4, 2026 da Cape Canaveral Space Force Station

Loading…

Prossimi Passaggi (prossime 24 ore)

TLE

AggiornatoSource: CelesTrak SupGP

Epoca: Sep 15, 2026, 03:45 UTC

1 69380C 26123AD  26258.15673611  .00006516  00000+0  19254-3 0  2582
2 69380  53.1584 166.8684 0001275  84.4601  35.4089 15.34384449    16

Traccia STARLINK-37411 in tempo reale con AllMySat

Download on the App Store